Regional Weather Roundup
Issued by NWS Cleveland, OH

Home | Current Version | Previous Version | Graphics & Text | Print | Product List | Glossary On
Versions: 1 2 3 4 5 6 7 8 9 10 11 12 13 14 15 16 17 18 19 20 21 22 23 24 25 26 27 28 29 30 31 32 33 34 35 36 37 38 39 40 41 42 43 44 45 46 47 48 49 50
000
ASUS41 KCLE 222310
RWRCLE
OHIO REGIONAL WEATHER ROUNDUP
NATIONAL WEATHER SERVICE CLEVELAND, OH
700 PM EDT FRI JUL 22 2016

NOTE: "FAIR" INDICATES FEW OR NO CLOUDS BELOW 12,000 FEET WITH NO
SIGNIFICANT WEATHER AND/OR OBSTRUCTIONS TO VISIBILITY.

OHZ001>008-015>018-024>027-034-035-043-044-230000-
   NORTHWEST OHIO

CITY           SKY/WX    TMP DP  RH WIND       PRES   REMARKS
DEFIANCE       SUNNY     90  71  53 CALM      29.95F HX  96
FINDLAY        CLOUDY    91  70  49 SW6       29.94F HX  96
TOLEDO EXPRESS SUNNY     89  71  55 NW7       29.94F HX  95
TOLEDO EXEC    SUNNY     92  71  50 NW12      29.94F HX  98
LIMA           SUNNY     87  73  62 SW7       29.96F HX  94
$$

OHZ009>014-019>023-028>033-038-089-230000-
   NORTHEAST OHIO

CITY           SKY/WX    TMP DP  RH WIND       PRES   REMARKS
CLE-HOPKINS    SUNNY     92  71  50 W8        29.96F HX  98
CLE-LAKEFRONT  SUNNY     84  73  69 W6        29.93F HX  90
CUY CO. ARPT   MOSUNNY   90  72  55 NW12      29.96F HX  96
LORAIN-ELYRIA  SUNNY     88  71  57 N7        29.95F HX  94
ASHTABULA      SUNNY     85  72  65 W9        29.96F HX  91
AKRON-CANTON   MOSUNNY   88  70  55 SW7       29.97F HX  93
WOOSTER        CLOUDY    86  73  65 W7        29.98F HX  93
MANSFIELD      MOSUNNY   87  73  62 SW8       29.99F HX  94
YOUNGSTOWN     MOSUNNY   83  68  60 W6        29.97F
$$

OHZ042-051>053-060>062-070>072-077>081-230000-
  SOUTHWEST OHIO

CITY           SKY/WX    TMP DP  RH WIND       PRES   REMARKS
CINC-COVINGTON CLOUDY    83  73  72 S14       30.01S
CINC-LUNKEN    CLOUDY    82  73  74 S6        30.00S
HAMILTON       PTSUNNY   88  72  58 W5        29.99F HX  94
DAYTON         MOSUNNY   84  75  74 S6        30.01F HX  92
WRIGHT-PAT AFB MOSUNNY   83  75  76 S8        29.99F HX  91
DAYTON GENERAL MOSUNNY   81  72  74 SE9       30.00S
WILMINGTON     SUNNY     82  71  69 SW8       30.01F
$$

OHZ036-037-039>041-045>050-054>059-063>069-073>076-082>088-230000-
  CENTRAL AND SOUTHEAST OHIO

CITY           SKY/WX    TMP DP  RH WIND       PRES   REMARKS
COLUMBUS       PTSUNNY   84  70  62 S10       29.98F
OSU AIRPORT    SUNNY     84  71  65 SW9       29.99F
BOLTON FIELD   SUNNY     82  73  74 SW3       30.01F
RICKENBACK AFB SUNNY     82  71  68 SW9       29.99F
NEWARK         SUNNY     83  70  64 SW8       30.00F
MARION         SUNNY     85  73  67 SW12      29.98F HX  91
LANCASTER      SUNNY     82  70  66 W3        30.01F
ZANESVILLE     SUNNY     87  67  51 SW6       30.01F HX  90
NEW PHILLY     SUNNY     89  68  49 SW7       29.98F HX  93
$$




USA.gov is the U.S. government's official web portal to all federal, state and local government web resources and services.